START_TIME,STEP,MOV.,A46,t_acc.,A13,t_acc.,M47,t_acc.,A17,t_acc.,A28,t_acc.,M38,t_acc.
1979-07-16 03:00:25.690 ,1,0,,0,3.,4.8,0.,4.8,,0,0.,4.8,0.,4.8
1979-07-16 03:00:30.490 ,1,0,,0,6.,4.8,0.,4.8,,0,0.,4.8,2.,4.8
1979-07-16 03:00:35.290 ,1,0,,0,2.,4.8,1.,4.8,,0,0.,4.8,2.,4.8
1979-07-16 03:00:40.090 ,1,0,,0,0.,4.8,0.,4.8,,0,0.,4.8,2.,4.8
1979-07-16 03:00:44.890 ,1,0,,0,0.,4.8,0.,4.8,,0,0.,4.8,2.,4.8
1979-07-16 03:00:49.690 ,2,0,,0,0.,4.8,0.,4.8,,0,0.,4.8,1.,4.8
1979-07-16 03:00:54.490 ,2,0,,0,0.,4.8,0.,4.8,,0,0.,4.8,1.,4.8
1979-07-16 03:00:59.290 ,2,0,,0,5.,4.8,0.,4.8,,0,0.,4.8,16.,4.8
1979-07-16 03:01:04.090 ,2,0,,0,25.,4.8,3.,4.8,,0,0.,4.8,10.,4.8
1979-07-16 03:01:08.890 ,2,0,,0,18.,4.8,1.,4.8,,0,0.,4.8,4.,4.8
1979-07-16 03:01:13.690 ,2,0,,0,20.,4.8,4.,4.8,,0,0.,4.8,14.,4.8
1979-07-16 03:01:18.490 ,2,0,,0,28.,4.8,2.,4.8,,0,0.,4.8,16.,4.8
1979-07-16 03:01:23.290 ,2,0,,0,18.,4.8,2.,4.8,,0,0.,4.8,20.,4.8
1979-07-16 03:01:28.090 ,2,0,,0,0.,4.8,0.,4.8,,0,0.,4.8,6.,4.8
1979-07-16 03:01:32.890 ,2,0,,0,0.,4.8,0.,4.8,,0,0.,4.8,15.,4.8
1979-07-16 03:01:37.690 ,3,0,,0,0.,4.8,0.,4.8,,0,0.,4.8,7.,4.8
1979-07-16 03:01:42.490 ,3,0,,0,0.,4.8,0.,4.8,,0,0.,4.8,9.,4.8
1979-07-16 03:01:47.290 ,3,0,,0,0.,4.8,0.,4.8,,0,0.,4.8,1.,4.8
1979-07-16 03:01:52.090 ,3,0,,0,5.,4.8,0.,4.8,,0,0.,4.8,0.,4.8
1979-07-16 03:01:56.890 ,3,0,,0,4.,4.8,0.,4.8,,0,0.,4.8,0.,4.8
1979-07-16 03:02:01.690 ,3,0,,0,6.,4.8,1.,4.8,,0,0.,4.8,0.,4.8
1979-07-16 03:02:06.490 ,3,0,,0,3.,4.8,1.,4.8,,0,0.,4.8,0.,4.8
1979-07-16 03:02:11.290 ,3,0,,0,9.,4.8,1.,4.8,,0,0.,4.8,3.,4.8
1979-07-16 03:02:16.090 ,3,0,,0,0.,4.8,0.,4.8,,0,0.,4.8,1.,4.8
1979-07-16 03:02:20.890 ,3,0,,0,0.,4.8,0.,4.8,,0,0.,4.8,2.,4.8
1979-07-16 03:02:25.690 ,4,0,,0,0.,4.8,0.,4.8,,0,0.,4.8,2.,4.8
1979-07-16 03:02:30.490 ,4,0,,0,0.,4.8,0.,4.8,,0,0.,4.8,0.,4.8
1979-07-16 03:02:35.290 ,4,0,,0,0.,4.8,0.,4.8,,0,0.,4.8,0.,4.8
1979-07-16 03:02:40.090 ,4,0,,0,3.,4.8,0.,4.8,,0,0.,4.8,1.,4.8
1979-07-16 03:02:44.890 ,4,0,,0,2.,4.8,0.,4.8,,0,0.,4.8,3.,4.8
1979-07-16 03:02:49.690 ,4,0,,0,4.,4.8,0.,4.8,,0,0.,4.8,2.,4.8
1979-07-16 03:02:54.490 ,4,0,,0,7.,4.8,0.,4.8,,0,0.,4.8,0.,4.8
1979-07-16 03:02:59.290 ,4,0,,0,5.,4.8,0.,4.8,,0,0.,4.8,1.,4.8
1979-07-16 03:03:04.090 ,4,0,,0,0.,4.8,0.,4.8,,0,0.,4.8,2.,4.8
1979-07-16 03:03:08.890 ,4,0,,0,0.,4.8,0.,4.8,,0,0.,4.8,0.,4.8
1979-07-16 03:03:13.690 ,5,0,,0,0.,4.8,0.,4.8,,0,0.,4.8,2.,4.8
1979-07-16 03:03:18.490 ,5,0,,0,1.,4.8,0.,4.8,,0,0.,4.8,1.,4.8
1979-07-16 03:03:23.290 ,5,0,,0,0.,4.8,0.,4.8,,0,0.,4.8,1.,4.8
1979-07-16 03:03:28.090 ,5,0,,0,7.,4.8,0.,4.8,,0,0.,4.8,3.,4.8
1979-07-16 03:03:32.890 ,5,0,,0,3.,4.8,0.,4.8,,0,0.,4.8,1.,4.8
1979-07-16 03:03:37.690 ,5,0,,0,3.,4.8,0.,4.8,,0,0.,4.8,2.,4.8
1979-07-16 03:03:42.490 ,5,0,,0,2.,4.8,0.,4.8,,0,0.,4.8,2.,4.8
1979-07-16 03:03:47.290 ,5,0,,0,3.,4.8,0.,4.8,,0,0.,4.8,0.,4.8
1979-07-16 03:03:52.090 ,5,0,,0,0.,4.8,0.,4.8,,0,0.,4.8,0.,4.8
1979-07-16 03:03:56.890 ,5,0,,0,0.,4.8,0.,4.8,,0,0.,4.8,1.,4.8
1979-07-16 03:04:01.690 ,6,0,,0,0.,4.8,0.,4.8,,0,0.,4.8,2.,4.8
1979-07-16 03:04:06.490 ,6,0,,0,0.,4.8,0.,4.8,,0,0.,4.8,4.,4.8
1979-07-16 03:04:11.290 ,6,0,,0,2.,4.8,0.,4.8,,0,0.,4.8,0.,4.8
1979-07-16 03:04:16.090 ,6,0,,0,8.,4.8,0.,4.8,,0,0.,4.8,1.,4.8
1979-07-16 03:04:20.890 ,6,0,,0,2.,4.8,0.,4.8,,0,0.,4.8,2.,4.8
1979-07-16 03:04:25.690 ,6,0,,0,1.,4.8,0.,4.8,,0,0.,4.8,1.,4.8
1979-07-16 03:04:30.490 ,6,0,,0,6.,4.8,0.,4.8,,0,0.,4.8,2.,4.8
1979-07-16 03:04:35.290 ,6,0,,0,1.,4.8,0.,4.8,,0,0.,4.8,0.,4.8
1979-07-16 03:04:40.090 ,6,0,,0,0.,4.8,0.,4.8,,0,0.,4.8,2.,4.8
1979-07-16 03:04:44.890 ,6,0,,0,0.,4.8,0.,4.8,,0,0.,4.8,1.,4.8
1979-07-16 03:04:49.690 ,7,0,,0,0.,4.8,0.,4.8,,0,0.,4.8,1.,4.8
1979-07-16 03:04:54.490 ,7,0,,0,0.,4.8,0.,4.8,,0,0.,4.8,1.,4.8
1979-07-16 03:04:59.290 ,7,0,,0,4.,4.8,0.,4.8,,0,0.,4.8,0.,4.8
1979-07-16 03:05:04.090 ,7,0,,0,8.,4.8,0.,4.8,,0,0.,4.8,0.,4.8
1979-07-16 03:05:08.890 ,7,0,,0,10.,4.8,0.,4.8,,0,0.,4.8,0.,4.8
1979-07-16 03:05:13.690 ,7,0,,0,6.,4.8,0.,4.8,,0,0.,4.8,0.,4.8
1979-07-16 03:05:18.490 ,7,0,,0,9.,4.8,0.,4.8,,0,0.,4.8,0.,4.8
1979-07-16 03:05:23.290 ,7,0,,0,4.,4.8,0.,4.8,,0,0.,4.8,0.,4.8
1979-07-16 03:05:28.090 ,7,0,,0,0.,4.8,0.,4.8,,0,0.,4.8,0.,4.8
1979-07-16 03:05:32.890 ,7,0,,0,0.,4.8,0.,4.8,,0,0.,4.8,0.,4.8
1979-07-16 03:05:37.690 ,7,0,,0,0.,4.8,0.,4.8,,0,0.,4.8,0.,4.8
1979-07-16 03:05:42.490 ,7,0,,0,0.,4.8,0.,4.8,,0,0.,4.8,0.,4.8
1979-07-16 03:05:47.290 ,7,0,,0,2.,4.8,0.,4.8,,0,0.,4.8,0.,4.8
1979-07-16 03:05:52.090 ,7,0,,0,7.,4.8,0.,4.8,,0,0.,4.8,0.,4.8
1979-07-16 03:05:56.890 ,7,0,,0,15.,4.8,0.,4.8,,0,0.,4.8,0.,4.8
1979-07-16 03:06:01.690 ,7,0,,0,5.,4.8,0.,4.8,,0,0.,4.8,0.,4.8
1979-07-16 03:06:06.490 ,7,0,,0,9.,4.8,0.,4.8,,0,0.,4.8,0.,4.8
1979-07-16 03:06:11.290 ,7,0,,0,7.,4.8,0.,4.8,,0,0.,4.8,0.,4.8
1979-07-16 03:06:16.090 ,7,0,,0,0.,4.8,0.,4.8,,0,0.,4.8,0.,4.8
1979-07-16 03:06:20.890 ,7,0,,0,0.,4.8,0.,4.8,,0,0.,4.8,0.,4.8
1979-07-16 03:06:25.690 ,6,0,,0,0.,4.8,0.,4.8,,0,0.,4.8,0.,4.8
1979-07-16 03:06:30.490 ,6,0,,0,0.,4.8,0.,4.8,,0,0.,4.8,1.,4.8
1979-07-16 03:06:35.290 ,6,0,,0,,0,,0,,0,,0,,0
1979-07-16 03:06:40.090 ,6,0,,0,,0,,0,,0,,0,,0
1979-07-16 03:06:44.890 ,6,0,,0,3.,4.8,0.,4.8,,0,0.,4.8,1.,4.8
1979-07-16 03:06:49.690 ,6,0,,0,4.,4.8,0.,4.8,,0,0.,4.8,2.,4.8
1979-07-16 03:06:54.490 ,6,0,,0,3.,4.8,0.,4.8,,0,0.,4.8,1.,4.8
1979-07-16 03:06:59.290 ,6,0,,0,1.,4.8,0.,4.8,,0,0.,4.8,3.,4.8
1979-07-16 03:07:04.090 ,6,0,,0,0.,4.8,0.,4.8,,0,0.,4.8,1.,4.8
1979-07-16 03:07:08.890 ,6,0,,0,0.,4.8,0.,4.8,,0,0.,4.8,0.,4.8
1979-07-16 03:07:13.690 ,5,0,,0,0.,4.8,0.,4.8,,0,0.,4.8,0.,4.8
1979-07-16 03:07:18.490 ,5,0,,0,0.,4.8,0.,4.8,,0,0.,4.8,3.,4.8
1979-07-16 03:07:23.290 ,5,0,,0,0.,4.8,0.,4.8,,0,0.,4.8,0.,4.8
1979-07-16 03:07:28.090 ,5,0,,0,3.,4.8,0.,4.8,,0,0.,4.8,0.,4.8
1979-07-16 03:07:32.890 ,5,0,,0,3.,4.8,0.,4.8,,0,0.,4.8,1.,4.8
1979-07-16 03:07:37.690 ,5,0,,0,7.,4.8,1.,4.8,,0,0.,4.8,2.,4.8
1979-07-16 03:07:42.490 ,5,0,,0,3.,4.8,0.,4.8,,0,0.,4.8,4.,4.8
1979-07-16 03:07:47.290 ,5,0,,0,3.,4.8,0.,4.8,,0,0.,4.8,0.,4.8
1979-07-16 03:07:52.090 ,5,0,,0,0.,4.8,0.,4.8,,0,0.,4.8,2.,4.8
1979-07-16 03:07:56.890 ,5,0,,0,0.,4.8,0.,4.8,,0,0.,4.8,0.,4.8
1979-07-16 03:08:01.690 ,4,0,,0,0.,4.8,0.,4.8,,0,0.,4.8,1.,4.8
1979-07-16 03:08:06.490 ,4,0,,0,0.,4.8,0.,4.8,,0,0.,4.8,1.,4.8
1979-07-16 03:08:11.290 ,4,0,,0,0.,4.8,0.,4.8,,0,0.,4.8,0.,4.8
1979-07-16 03:08:16.090 ,4,0,,0,4.,4.8,0.,4.8,,0,0.,4.8,0.,4.8
1979-07-16 03:08:20.890 ,4,0,,0,2.,4.8,0.,4.8,,0,0.,4.8,0.,4.8
1979-07-16 03:08:25.690 ,4,0,,0,4.,4.8,0.,4.8,,0,0.,4.8,0.,4.8
1979-07-16 03:08:30.490 ,4,0,,0,3.,4.8,0.,4.8,,0,0.,4.8,0.,4.8
1979-07-16 03:08:35.290 ,4,0,,0,2.,4.8,0.,4.8,,0,0.,4.8,0.,4.8
1979-07-16 03:08:40.090 ,4,0,,0,0.,4.8,0.,4.8,,0,0.,4.8,1.,4.8
1979-07-16 03:08:44.890 ,4,0,,0,0.,4.8,0.,4.8,,0,0.,4.8,1.,4.8
1979-07-16 03:08:49.690 ,3,0,,0,0.,4.8,0.,4.8,,0,0.,4.8,0.,4.8
1979-07-16 03:08:54.490 ,3,0,,0,0.,4.8,0.,4.8,,0,0.,4.8,0.,4.8
1979-07-16 03:08:59.290 ,3,0,,0,1.,4.8,0.,4.8,,0,0.,4.8,2.,4.8
1979-07-16 03:09:04.090 ,3,0,,0,7.,4.8,1.,4.8,,0,0.,4.8,3.,4.8
1979-07-16 03:09:08.890 ,3,0,,0,11.,4.8,1.,4.8,,0,0.,4.8,2.,4.8
1979-07-16 03:09:13.690 ,3,0,,0,5.,4.8,0.,4.8,,0,0.,4.8,0.,4.8
1979-07-16 03:09:18.490 ,3,0,,0,5.,4.8,1.,4.8,,0,0.,4.8,3.,4.8
1979-07-16 03:09:23.290 ,3,0,,0,7.,4.8,0.,4.8,,0,0.,4.8,1.,4.8
1979-07-16 03:09:28.090 ,3,0,,0,0.,4.8,0.,4.8,,0,0.,4.8,5.,4.8
1979-07-16 03:09:32.890 ,3,0,,0,0.,4.8,0.,4.8,,0,0.,4.8,2.,4.8
1979-07-16 03:09:37.690 ,2,0,,0,0.,4.8,0.,4.8,,0,0.,4.8,2.,4.8
1979-07-16 03:09:42.490 ,2,0,,0,0.,4.8,0.,4.8,,0,0.,4.8,2.,4.8
1979-07-16 03:09:47.290 ,2,0,,0,10.,4.8,2.,4.8,,0,0.,4.8,12.,4.8
1979-07-16 03:09:52.090 ,2,0,,0,36.,4.8,4.,4.8,,0,0.,4.8,13.,4.8
1979-07-16 03:09:56.890 ,2,0,,0,29.,4.8,3.,4.8,,0,0.,4.8,12.,4.8
1979-07-16 03:10:01.690 ,2,0,,0,40.,4.8,2.,4.8,,0,0.,4.8,17.,4.8
1979-07-16 03:10:06.490 ,2,0,,0,36.,4.8,4.,4.8,,0,0.,4.8,6.,4.8
1979-07-16 03:10:11.290 ,2,0,,0,24.,4.8,3.,4.8,,0,0.,4.8,10.,4.8
1979-07-16 03:10:16.090 ,2,0,,0,1.,4.8,0.,4.8,,0,0.,4.8,11.,4.8
1979-07-16 03:10:20.890 ,2,0,,0,0.,4.8,0.,4.8,,0,0.,4.8,8.,4.8
1979-07-16 03:10:25.690 ,1,0,,0,0.,4.8,0.,4.8,,0,0.,4.8,16.,4.8
1979-07-16 03:10:30.490 ,1,0,,0,0.,4.8,0.,4.8,,0,0.,4.8,8.,4.8
1979-07-16 03:10:35.290 ,1,0,,0,2.,4.8,0.,4.8,,0,0.,4.8,2.,4.8
1979-07-16 03:10:40.090 ,1,0,,0,4.,4.8,0.,4.8,,0,0.,4.8,1.,4.8
1979-07-16 03:10:44.890 ,1,0,,0,4.,4.8,1.,4.8,,0,0.,4.8,1.,4.8
1979-07-16 03:10:49.690 ,1,0,,0,8.,4.8,1.,4.8,,0,0.,4.8,1.,4.8
1979-07-16 03:10:54.490 ,1,0,,0,8.,4.8,2.,4.8,,0,0.,4.8,1.,4.8
1979-07-16 03:10:59.290 ,1,0,,0,4.,4.8,1.,4.8,,0,0.,4.8,0.,4.8
1979-07-16 03:11:04.090 ,1,0,,0,0.,4.8,0.,4.8,,0,0.,4.8,1.,4.8
1979-07-16 03:11:08.890 ,1,0,,0,0.,4.8,0.,4.8,,0,0.,4.8,0.,4.8
1979-07-16 03:11:13.690 ,0,0,,0,0.,4.8,0.,4.8,,0,0.,4.8,1.,4.8
1979-07-16 03:11:18.490 ,0,0,,0,0.,4.8,0.,4.8,,0,0.,4.8,1.,4.8
1979-07-16 03:11:23.290 ,0,0,,0,0.,4.8,0.,4.8,,0,0.,4.8,0.,4.8
1979-07-16 03:11:28.090 ,0,0,,0,2.,4.8,0.,4.8,,0,0.,4.8,0.,4.8
1979-07-16 03:11:32.890 ,0,0,,0,2.,4.8,0.,4.8,,0,0.,4.8,1.,4.8
1979-07-16 03:11:37.690 ,0,0,,0,2.,4.8,0.,4.8,,0,0.,4.8,0.,4.8
1979-07-16 03:11:42.490 ,0,0,,0,4.,4.8,0.,4.8,,0,0.,4.8,0.,4.8
1979-07-16 03:11:47.290 ,0,0,,0,0.,4.8,0.,4.8,,0,0.,4.8,0.,4.8
1979-07-16 03:11:52.090 ,0,0,,0,0.,4.8,0.,4.8,,0,0.,4.8,0.,4.8
1979-07-16 03:11:56.890 ,0,0,,0,0.,4.8,0.,4.8,,0,0.,4.8,0.,4.8
1979-07-16 03:12:01.690 ,0,0,,0,0.,4.8,0.,4.8,,0,0.,4.8,1.,4.8
1979-07-16 03:12:06.490 ,0,0,,0,0.,4.8,0.,4.8,,0,0.,4.8,0.,4.8
1979-07-16 03:12:11.290 ,0,0,,0,0.,4.8,0.,4.8,,0,0.,4.8,3.,4.8
1979-07-16 03:12:16.090 ,0,0,,0,6.,4.8,0.,4.8,,0,0.,4.8,0.,4.8
1979-07-16 03:12:20.890 ,0,0,,0,2.,4.8,0.,4.8,,0,0.,4.8,0.,4.8
1979-07-16 03:12:25.690 ,0,0,,0,3.,4.8,0.,4.8,,0,0.,4.8,0.,4.8
1979-07-16 03:12:30.490 ,0,0,,0,4.,4.8,0.,4.8,,0,0.,4.8,0.,4.8
1979-07-16 03:12:35.290 ,0,0,,0,1.,4.8,0.,4.8,,0,0.,4.8,0.,4.8
1979-07-16 03:12:40.090 ,0,0,,0,0.,4.8,0.,4.8,,0,0.,4.8,1.,4.8
1979-07-16 03:12:44.890 ,0,0,,0,0.,4.8,0.,4.8,,0,0.,4.8,0.,4.8
1979-07-16 03:12:49.690 ,1,0,,0,0.,4.8,0.,4.8,,0,0.,4.8,1.,4.8
1979-07-16 03:12:54.490 ,1,0,,0,0.,4.8,0.,4.8,,0,0.,4.8,0.,4.8
1979-07-16 03:12:59.290 ,1,0,,0,1.,4.8,0.,4.8,,0,0.,4.8,2.,4.8
1979-07-16 03:13:04.090 ,1,0,,0,5.,4.8,0.,4.8,,0,0.,4.8,0.,4.8
1979-07-16 03:13:08.890 ,1,0,,0,4.,4.8,0.,4.8,,0,0.,4.8,0.,4.8
1979-07-16 03:13:13.690 ,1,0,,0,2.,4.8,0.,4.8,,0,0.,4.8,0.,4.8
1979-07-16 03:13:18.490 ,1,0,,0,1.,4.8,0.,4.8,,0,0.,4.8,0.,4.8
1979-07-16 03:13:23.290 ,1,0,,0,3.,4.8,0.,4.8,,0,0.,4.8,1.,4.8
1979-07-16 03:13:28.090 ,1,0,,0,0.,4.8,0.,4.8,,0,0.,4.8,1.,4.8
1979-07-16 03:13:32.890 ,1,0,,0,0.,4.8,0.,4.8,,0,0.,4.8,1.,4.8
1979-07-16 03:13:37.690 ,2,0,,0,0.,4.8,0.,4.8,,0,0.,4.8,0.,4.8
1979-07-16 03:13:42.490 ,2,0,,0,1.,4.8,0.,4.8,,0,0.,4.8,4.,4.8
1979-07-16 03:13:47.290 ,2,0,,0,4.,4.8,0.,4.8,,0,0.,4.8,8.,4.8
1979-07-16 03:13:52.090 ,2,0,,0,18.,4.8,1.,4.8,,0,0.,4.8,12.,4.8
1979-07-16 03:13:56.890 ,2,0,,0,16.,4.8,3.,4.8,,0,0.,4.8,5.,4.8
1979-07-16 03:14:01.690 ,2,0,,0,18.,4.8,1.,4.8,,0,0.,4.8,0.,4.8
1979-07-16 03:14:06.490 ,2,0,,0,11.,4.8,1.,4.8,,0,0.,4.8,4.,4.8
1979-07-16 03:14:11.290 ,2,0,,0,11.,4.8,1.,4.8,,0,0.,4.8,3.,4.8
1979-07-16 03:14:16.090 ,2,0,,0,0.,4.8,0.,4.8,,0,0.,4.8,7.,4.8
1979-07-16 03:14:20.890 ,2,0,,0,0.,4.8,0.,4.8,,0,0.,4.8,5.,4.8
1979-07-16 03:14:25.690 ,3,0,,0,0.,4.8,0.,4.8,,0,0.,4.8,5.,4.8
1979-07-16 03:14:30.490 ,3,0,,0,0.,4.8,0.,4.8,,0,0.,4.8,1.,4.8
1979-07-16 03:14:35.290 ,3,0,,0,1.,4.8,0.,4.8,,0,0.,4.8,1.,4.8
1979-07-16 03:14:40.090 ,3,0,,0,4.,4.8,0.,4.8,,0,0.,4.8,0.,4.8
1979-07-16 03:14:44.890 ,3,0,,0,5.,4.8,0.,4.8,,0,0.,4.8,0.,4.8
1979-07-16 03:14:49.690 ,3,0,,0,2.,4.8,0.,4.8,,0,0.,4.8,2.,4.8
1979-07-16 03:14:54.490 ,3,0,,0,1.,4.8,0.,4.8,,0,0.,4.8,1.,4.8
1979-07-16 03:14:59.290 ,3,0,,0,2.,4.8,0.,4.8,,0,0.,4.8,0.,4.8
1979-07-16 03:15:04.090 ,3,0,,0,0.,4.8,0.,4.8,,0,0.,4.8,1.,4.8
1979-07-16 03:15:08.890 ,3,0,,0,0.,4.8,0.,4.8,,0,0.,4.8,0.,4.8
1979-07-16 03:15:13.690 ,4,0,,0,0.,4.8,0.,4.8,,0,0.,4.8,0.,4.8
1979-07-16 03:15:18.490 ,4,0,,0,0.,4.8,0.,4.8,,0,0.,4.8,1.,4.8
1979-07-16 03:15:23.290 ,4,0,,0,1.,4.8,0.,4.8,,0,0.,4.8,0.,4.8
1979-07-16 03:15:28.090 ,4,0,,0,1.,4.8,0.,4.8,,0,0.,4.8,0.,4.8
1979-07-16 03:15:32.890 ,4,0,,0,3.,4.8,0.,4.8,,0,0.,4.8,0.,4.8
1979-07-16 03:15:37.690 ,4,0,,0,5.,4.8,0.,4.8,,0,0.,4.8,0.,4.8
1979-07-16 03:15:42.490 ,4,0,,0,2.,4.8,0.,4.8,,0,0.,4.8,0.,4.8
1979-07-16 03:15:47.290 ,4,0,,0,3.,4.8,0.,4.8,,0,0.,4.8,0.,4.8
1979-07-16 03:15:52.090 ,4,0,,0,0.,4.8,0.,4.8,,0,0.,4.8,1.,4.8
1979-07-16 03:15:56.890 ,4,0,,0,0.,4.8,0.,4.8,,0,0.,4.8,0.,4.8
1979-07-16 03:16:01.690 ,5,0,,0,0.,4.8,0.,4.8,,0,0.,4.8,0.,4.8
1979-07-16 03:16:06.490 ,5,0,,0,0.,4.8,0.,4.8,,0,0.,4.8,4.,4.8
1979-07-16 03:16:11.290 ,5,0,,0,1.,4.8,0.,4.8,,0,0.,4.8,2.,4.8
1979-07-16 03:16:16.090 ,5,0,,0,3.,4.8,0.,4.8,,0,0.,4.8,4.,4.8
1979-07-16 03:16:20.890 ,5,0,,0,6.,4.8,0.,4.8,,0,0.,4.8,0.,4.8
1979-07-16 03:16:25.690 ,5,0,,0,6.,4.8,0.,4.8,,0,0.,4.8,0.,4.8
1979-07-16 03:16:30.490 ,5,0,,0,6.,4.8,0.,4.8,,0,0.,4.8,0.,4.8
1979-07-16 03:16:35.290 ,5,0,,0,3.,4.8,0.,4.8,,0,0.,4.8,0.,4.8
1979-07-16 03:16:40.090 ,5,0,,0,0.,4.8,0.,4.8,,0,0.,4.8,1.,4.8
1979-07-16 03:16:44.890 ,5,0,,0,0.,4.8,0.,4.8,,0,0.,4.8,2.,4.8
1979-07-16 03:16:49.690 ,6,0,,0,0.,4.8,0.,4.8,,0,0.,4.8,1.,4.8
1979-07-16 03:16:54.490 ,6,0,,0,0.,4.8,0.,4.8,,0,0.,4.8,1.,4.8
1979-07-16 03:16:59.290 ,6,0,,0,1.,4.8,0.,4.8,,0,0.,4.8,0.,4.8
1979-07-16 03:17:04.090 ,6,0,,0,6.,4.8,0.,4.8,,0,0.,4.8,0.,4.8
1979-07-16 03:17:08.890 ,6,0,,0,3.,4.8,1.,4.8,,0,0.,4.8,0.,4.8
1979-07-16 03:17:13.690 ,6,0,,0,6.,4.8,0.,4.8,,0,0.,4.8,1.,4.8
1979-07-16 03:17:18.490 ,6,0,,0,2.,4.8,0.,4.8,,0,0.,4.8,1.,4.8
1979-07-16 03:17:23.290 ,6,0,,0,2.,4.8,0.,4.8,,0,0.,4.8,3.,4.8
1979-07-16 03:17:28.090 ,6,0,,0,0.,4.8,0.,4.8,,0,0.,4.8,0.,4.8
1979-07-16 03:17:32.890 ,6,0,,0,0.,4.8,0.,4.8,,0,0.,4.8,0.,4.8
1979-07-16 03:17:37.690 ,7,0,,0,0.,4.8,0.,4.8,,0,0.,4.8,0.,4.8
1979-07-16 03:17:42.490 ,7,0,,0,0.,4.8,0.,4.8,,0,0.,4.8,1.,4.8
1979-07-16 03:17:47.290 ,7,0,,0,1.,4.8,0.,4.8,,0,0.,4.8,0.,4.8
1979-07-16 03:17:52.090 ,7,0,,0,9.,4.8,0.,4.8,,0,0.,4.8,0.,4.8
1979-07-16 03:17:56.890 ,7,0,,0,13.,4.8,0.,4.8,,0,0.,4.8,0.,4.8
1979-07-16 03:18:01.690 ,7,0,,0,6.,4.8,0.,4.8,,0,0.,4.8,0.,4.8
1979-07-16 03:18:06.490 ,7,0,,0,10.,4.8,0.,4.8,,0,0.,4.8,0.,4.8
1979-07-16 03:18:11.290 ,7,0,,0,8.,4.8,0.,4.8,,0,0.,4.8,0.,4.8
1979-07-16 03:18:16.090 ,7,0,,0,0.,4.8,0.,4.8,,0,0.,4.8,0.,4.8
1979-07-16 03:18:20.890 ,7,0,,0,0.,4.8,0.,4.8,,0,0.,4.8,0.,4.8
1979-07-16 03:18:25.690 ,7,0,,0,0.,4.8,0.,4.8,,0,0.,4.8,0.,4.8
1979-07-16 03:18:30.490 ,7,0,,0,0.,4.8,0.,4.8,,0,0.,4.8,0.,4.8
1979-07-16 03:18:35.290 ,7,0,,0,0.,4.8,0.,4.8,,0,0.,4.8,0.,4.8
1979-07-16 03:18:40.090 ,7,0,,0,8.,4.8,0.,4.8,,0,0.,4.8,0.,4.8
1979-07-16 03:18:44.890 ,7,0,,0,13.,4.8,0.,4.8,,0,0.,4.8,0.,4.8
1979-07-16 03:18:49.690 ,7,0,,0,13.,4.8,0.,4.8,,0,0.,4.8,0.,4.8
1979-07-16 03:18:54.490 ,7,0,,0,9.,4.8,0.,4.8,,0,0.,4.8,0.,4.8
1979-07-16 03:18:59.290 ,7,0,,0,7.,4.8,0.,4.8,,0,0.,4.8,0.,4.8
1979-07-16 03:19:04.090 ,7,0,,0,0.,4.8,0.,4.8,,0,0.,4.8,0.,4.8
1979-07-16 03:19:08.890 ,7,0,,0,0.,4.8,0.,4.8,,0,0.,4.8,0.,4.8
1979-07-16 03:19:13.690 ,6,0,,0,0.,4.8,0.,4.8,,0,0.,4.8,0.,4.8
1979-07-16 03:19:18.490 ,6,0,,0,0.,4.8,0.,4.8,,0,0.,4.8,1.,4.8
1979-07-16 03:19:23.290 ,6,0,,0,0.,4.8,0.,4.8,,0,0.,4.8,1.,4.8
1979-07-16 03:19:28.090 ,6,0,,0,5.,4.8,0.,4.8,,0,0.,4.8,3.,4.8
1979-07-16 03:19:32.890 ,6,0,,0,6.,4.8,0.,4.8,,0,0.,4.8,2.,4.8
1979-07-16 03:19:37.690 ,6,0,,0,3.,4.8,0.,4.8,,0,0.,4.8,0.,4.8
1979-07-16 03:19:42.490 ,6,0,,0,5.,4.8,0.,4.8,,0,0.,4.8,2.,4.8
1979-07-16 03:19:47.290 ,6,0,,0,6.,4.8,0.,4.8,,0,0.,4.8,1.,4.8
1979-07-16 03:19:52.090 ,6,0,,0,0.,4.8,0.,4.8,,0,0.,4.8,0.,4.8
1979-07-16 03:19:56.890 ,6,0,,0,0.,4.8,0.,4.8,,0,0.,4.8,2.,4.8
1979-07-16 03:20:01.690 ,5,0,,0,0.,4.8,0.,4.8,,0,0.,4.8,0.,4.8
1979-07-16 03:20:06.490 ,5,0,,0,0.,4.8,0.,4.8,,0,0.,4.8,0.,4.8
1979-07-16 03:20:11.290 ,5,0,,0,0.,4.8,0.,4.8,,0,0.,4.8,0.,4.8
1979-07-16 03:20:16.090 ,5,0,,0,4.,4.8,0.,4.8,,0,0.,4.8,0.,4.8
1979-07-16 03:20:20.890 ,5,0,,0,7.,4.8,0.,4.8,,0,0.,4.8,0.,4.8
1979-07-16 03:20:25.690 ,5,0,,0,4.,4.8,0.,4.8,,0,0.,4.8,3.,4.8
1979-07-16 03:20:30.490 ,5,0,,0,2.,4.8,0.,4.8,,0,0.,4.8,0.,4.8
1979-07-16 03:20:35.290 ,5,0,,0,5.,4.8,0.,4.8,,0,0.,4.8,0.,4.8
1979-07-16 03:20:40.090 ,5,0,,0,0.,4.8,0.,4.8,,0,0.,4.8,2.,4.8
1979-07-16 03:20:44.890 ,5,0,,0,0.,4.8,0.,4.8,,0,0.,4.8,4.,4.8
1979-07-16 03:20:49.690 ,4,0,,0,0.,4.8,0.,4.8,,0,0.,4.8,1.,4.8
1979-07-16 03:20:54.490 ,4,0,,0,0.,4.8,0.,4.8,,0,0.,4.8,0.,4.8
1979-07-16 03:20:59.290 ,4,0,,0,2.,4.8,0.,4.8,,0,0.,4.8,1.,4.8
1979-07-16 03:21:04.090 ,4,0,,0,2.,4.8,0.,4.8,,0,0.,4.8,1.,4.8
1979-07-16 03:21:08.890 ,4,0,,0,4.,4.8,0.,4.8,,0,0.,4.8,0.,4.8
1979-07-16 03:21:13.690 ,0,0,,0,7.,4.8,0.,4.8,,0,0.,4.8,1.,4.8
1979-07-16 03:21:18.490 ,0,0,,0,3.,4.8,0.,4.8,,0,0.,4.8,0.,4.8
1979-07-16 03:21:23.290 ,0,0,,0,3.,4.8,0.,4.8,,0,0.,4.8,0.,4.8
1979-07-16 03:21:28.090 ,0,0,,0,0.,4.8,0.,4.8,,0,0.,4.8,2.,4.8
1979-07-16 03:21:32.890 ,0,0,,0,,0,,0,,0,,0,,0
1979-07-16 03:21:43.690 ,0,0,,0,,0,,0,,0,,0,,0
1979-07-16 03:21:48.490 ,0,0,,0,0.,4.8,0.,4.8,,0,0.,4.8,2.,4.8
1979-07-16 03:21:53.290 ,0,0,,0,0.,4.8,0.,4.8,,0,0.,4.8,1.,4.8
1979-07-16 03:21:58.090 ,0,0,,0,6.,4.8,0.,4.8,,0,0.,4.8,1.,4.8
1979-07-16 03:22:02.890 ,0,0,,0,4.,4.8,0.,4.8,,0,0.,4.8,2.,4.8
1979-07-16 03:22:01.690 ,0,0,,0,2.,4.8,0.,4.8,,0,0.,4.8,0.,4.8
1979-07-16 03:22:06.490 ,0,0,,0,5.,4.8,0.,4.8,,0,0.,4.8,0.,4.8
1979-07-16 03:22:11.290 ,0,0,,0,3.,4.8,0.,4.8,,0,0.,4.8,0.,4.8
1979-07-16 03:22:16.090 ,0,0,,0,0.,4.8,0.,4.8,,0,0.,4.8,0.,4.8
1979-07-16 03:22:20.890 ,0,0,,0,0.,4.8,0.,4.8,,0,0.,4.8,0.,4.8
1979-07-16 03:22:25.690 ,2,0,,0,0.,4.8,0.,4.8,,0,0.,4.8,1.,4.8
1979-07-16 03:22:30.490 ,2,0,,0,0.,4.8,0.,4.8,,0,0.,4.8,0.,4.8
1979-07-16 03:22:35.290 ,2,0,,0,1.,4.8,0.,4.8,,0,0.,4.8,2.,4.8
1979-07-16 03:22:40.090 ,2,0,,0,7.,4.8,1.,4.8,,0,0.,4.8,0.,4.8
1979-07-16 03:22:44.890 ,2,0,,0,5.,4.8,0.,4.8,,0,0.,4.8,0.,4.8
1979-07-16 03:22:49.690 ,2,0,,0,3.,4.8,1.,4.8,,0,0.,4.8,1.,4.8
1979-07-16 03:22:54.490 ,2,0,,0,9.,4.8,2.,4.8,,0,0.,4.8,0.,4.8
1979-07-16 03:22:59.290 ,2,0,,0,7.,4.8,0.,4.8,,0,0.,4.8,0.,4.8
1979-07-16 03:23:04.090 ,2,0,,0,0.,4.8,0.,4.8,,0,0.,4.8,2.,4.8
1979-07-16 03:23:08.890 ,2,0,,0,0.,4.8,0.,4.8,,0,0.,4.8,3.,4.8
1979-07-16 03:23:13.690 ,1,0,,0,0.,4.8,0.,4.8,,0,0.,4.8,2.,4.8
1979-07-16 03:23:18.490 ,1,0,,0,0.,4.8,0.,4.8,,0,0.,4.8,1.,4.8
1979-07-16 03:23:23.290 ,1,0,,0,2.,4.8,0.,4.8,,0,0.,4.8,0.,4.8
1979-07-16 03:23:28.090 ,1,0,,0,1.,4.8,0.,4.8,,0,0.,4.8,2.,4.8
1979-07-16 03:23:32.890 ,1,0,,0,2.,4.8,0.,4.8,,0,0.,4.8,0.,4.8
1979-07-16 03:23:37.690 ,1,0,,0,2.,4.8,0.,4.8,,0,0.,4.8,1.,4.8
1979-07-16 03:23:42.490 ,1,0,,0,4.,4.8,1.,4.8,,0,0.,4.8,0.,4.8
1979-07-16 03:23:47.290 ,1,0,,0,2.,4.8,1.,4.8,,0,0.,4.8,0.,4.8
1979-07-16 03:23:52.090 ,1,0,,0,0.,4.8,0.,4.8,,0,0.,4.8,0.,4.8
1979-07-16 03:23:56.890 ,1,0,,0,0.,4.8,0.,4.8,,0,0.,4.8,1.,4.8
1979-07-16 03:24:01.690 ,0,0,,0,0.,4.8,0.,4.8,,0,0.,4.8,2.,4.8
1979-07-16 03:24:06.490 ,0,0,,0,0.,4.8,0.,4.8,,0,0.,4.8,1.,4.8
1979-07-16 03:24:11.290 ,0,0,,0,0.,4.8,0.,4.8,,0,0.,4.8,0.,4.8
1979-07-16 03:24:16.090 ,0,0,,0,1.,4.8,0.,4.8,,0,0.,4.8,0.,4.8
1979-07-16 03:24:20.890 ,0,0,,0,0.,4.8,0.,4.8,,0,0.,4.8,0.,4.8
1979-07-16 03:24:25.690 ,0,0,,0,3.,4.8,0.,4.8,,0,0.,4.8,0.,4.8
1979-07-16 03:24:30.490 ,0,0,,0,3.,4.8,0.,4.8,,0,0.,4.8,0.,4.8
1979-07-16 03:24:35.290 ,0,0,,0,0.,4.8,0.,4.8,,0,0.,4.8,0.,4.8
1979-07-16 03:24:40.090 ,0,0,,0,0.,4.8,0.,4.8,,0,0.,4.8,0.,4.8
1979-07-16 03:24:44.890 ,0,0,,0,0.,4.8,0.,4.8,,0,0.,4.8,1.,4.8
1979-07-16 03:24:49.690 ,0,0,,0,0.,4.8,0.,4.8,,0,0.,4.8,1.,4.8
1979-07-16 03:24:54.490 ,0,0,,0,0.,4.8,0.,4.8,,0,0.,4.8,0.,4.8
1979-07-16 03:24:59.290 ,0,0,,0,0.,4.8,0.,4.8,,0,0.,4.8,0.,4.8
1979-07-16 03:25:04.090 ,0,0,,0,0.,4.8,0.,4.8,,0,0.,4.8,0.,4.8
1979-07-16 03:25:08.890 ,0,0,,0,2.,4.8,0.,4.8,,0,0.,4.8,0.,4.8
1979-07-16 03:25:13.690 ,0,0,,0,2.,4.8,0.,4.8,,0,0.,4.8,0.,4.8
1979-07-16 03:25:18.490 ,0,0,,0,3.,4.8,0.,4.8,,0,0.,4.8,1.,4.8
1979-07-16 03:25:23.290 ,0,0,,0,1.,4.8,0.,4.8,,0,0.,4.8,0.,4.8
1979-07-16 03:25:28.090 ,0,0,,0,0.,4.8,0.,4.8,,0,0.,4.8,0.,4.8
1979-07-16 03:25:32.890 ,0,0,,0,0.,4.8,0.,4.8,,0,0.,4.8,0.,4.8
1979-07-16 03:25:37.690 ,1,0,,0,0.,4.8,0.,4.8,,0,0.,4.8,0.,4.8
1979-07-16 03:25:42.490 ,1,0,,0,0.,4.8,0.,4.8,,0,0.,4.8,1.,4.8
1979-07-16 03:25:47.290 ,1,0,,0,0.,4.8,0.,4.8,,0,0.,4.8,0.,4.8
1979-07-16 03:25:52.090 ,1,0,,0,4.,4.8,0.,4.8,,0,0.,4.8,0.,4.8
1979-07-16 03:25:56.890 ,1,0,,0,3.,4.8,1.,4.8,,0,0.,4.8,0.,4.8
1979-07-16 03:26:01.690 ,1,0,,0,4.,4.8,0.,4.8,,0,0.,4.8,1.,4.8
1979-07-16 03:26:06.490 ,1,0,,0,4.,4.8,0.,4.8,,0,0.,4.8,1.,4.8
1979-07-16 03:26:11.290 ,1,0,,0,3.,4.8,0.,4.8,,0,0.,4.8,0.,4.8
1979-07-16 03:26:16.090 ,1,0,,0,0.,4.8,0.,4.8,,0,0.,4.8,0.,4.8
1979-07-16 03:26:20.890 ,1,0,,0,0.,4.8,0.,4.8,,0,0.,4.8,0.,4.8
1979-07-16 03:26:25.690 ,2,0,,0,0.,4.8,0.,4.8,,0,0.,4.8,0.,4.8
1979-07-16 03:26:30.490 ,2,0,,0,0.,4.8,0.,4.8,,0,0.,4.8,1.,4.8
1979-07-16 03:26:35.290 ,2,0,,0,3.,4.8,0.,4.8,,0,0.,4.8,1.,4.8
1979-07-16 03:26:40.090 ,2,0,,0,4.,4.8,0.,4.8,,0,0.,4.8,1.,4.8
1979-07-16 03:26:44.890 ,2,0,,0,6.,4.8,0.,4.8,,0,0.,4.8,2.,4.8
1979-07-16 03:26:49.690 ,2,0,,0,4.,4.8,1.,4.8,,0,0.,4.8,1.,4.8
1979-07-16 03:26:54.490 ,2,0,,0,6.,4.8,0.,4.8,,0,0.,4.8,1.,4.8
1979-07-16 03:26:59.290 ,2,0,,0,2.,4.8,0.,4.8,,0,0.,4.8,1.,4.8
1979-07-16 03:27:04.090 ,2,0,,0,0.,4.8,0.,4.8,,0,0.,4.8,0.,4.8
1979-07-16 03:27:08.890 ,2,0,,0,0.,4.8,0.,4.8,,0,0.,4.8,0.,4.8
1979-07-16 03:27:13.690 ,3,0,,0,0.,4.8,0.,4.8,,0,0.,4.8,0.,4.8
1979-07-16 03:27:18.490 ,3,0,,0,0.,4.8,0.,4.8,,0,0.,4.8,1.,4.8
1979-07-16 03:27:23.290 ,3,0,,0,0.,4.8,0.,4.8,,0,0.,4.8,2.,4.8
1979-07-16 03:27:28.090 ,3,0,,0,4.,4.8,0.,4.8,,0,0.,4.8,0.,4.8
1979-07-16 03:27:32.890 ,3,0,,0,4.,4.8,0.,4.8,,0,0.,4.8,2.,4.8
1979-07-16 03:27:37.690 ,3,0,,0,4.,4.8,0.,4.8,,0,0.,4.8,2.,4.8
1979-07-16 03:27:42.490 ,3,0,,0,2.,4.8,0.,4.8,,0,0.,4.8,1.,4.8
1979-07-16 03:27:47.290 ,3,0,,0,4.,4.8,1.,4.8,,0,0.,4.8,4.,4.8
1979-07-16 03:27:52.090 ,3,0,,0,0.,4.8,0.,4.8,,0,0.,4.8,0.,4.8
1979-07-16 03:27:56.890 ,3,0,,0,0.,4.8,0.,4.8,,0,0.,4.8,1.,4.8
1979-07-16 03:28:01.690 ,4,0,,0,0.,4.8,0.,4.8,,0,0.,4.8,2.,4.8
1979-07-16 03:28:06.490 ,4,0,,0,0.,4.8,0.,4.8,,0,0.,4.8,0.,4.8
1979-07-16 03:28:11.290 ,4,0,,0,0.,4.8,0.,4.8,,0,0.,4.8,1.,4.8
1979-07-16 03:28:16.090 ,4,0,,0,4.,4.8,0.,4.8,,0,0.,4.8,0.,4.8
1979-07-16 03:28:20.890 ,4,0,,0,4.,4.8,0.,4.8,,0,0.,4.8,0.,4.8
1979-07-16 03:28:25.690 ,4,0,,0,1.,4.8,0.,4.8,,0,0.,4.8,0.,4.8
1979-07-16 03:28:30.490 ,4,0,,0,3.,4.8,0.,4.8,,0,0.,4.8,1.,4.8
1979-07-16 03:28:35.290 ,4,0,,0,4.,4.8,1.,4.8,,0,0.,4.8,0.,4.8
1979-07-16 03:28:40.090 ,4,0,,0,,0,,0,,0,,0,,0
1979-07-16 03:28:44.890 ,4,0,,0,0.,4.8,0.,4.8,,0,0.,4.8,0.,4.8
1979-07-16 03:28:49.690 ,5,0,,0,0.,4.8,0.,4.8,,0,0.,4.8,0.,4.8
1979-07-16 03:28:54.490 ,5,0,,0,0.,4.8,0.,4.8,,0,0.,4.8,2.,4.8
1979-07-16 03:28:59.290 ,5,0,,0,0.,4.8,0.,4.8,,0,0.,4.8,0.,4.8
1979-07-16 03:29:04.090 ,5,0,,0,4.,4.8,0.,4.8,,0,0.,4.8,2.,4.8
1979-07-16 03:29:08.890 ,5,0,,0,9.,4.8,0.,4.8,,0,0.,4.8,1.,4.8
1979-07-16 03:29:13.690 ,5,0,,0,5.,4.8,1.,4.8,,0,0.,4.8,0.,4.8
1979-07-16 03:29:18.490 ,5,0,,0,6.,4.8,0.,4.8,,0,0.,4.8,1.,4.8
1979-07-16 03:29:23.290 ,5,0,,0,4.,4.8,0.,4.8,,0,0.,4.8,0.,4.8
1979-07-16 03:29:28.090 ,5,0,,0,0.,4.8,0.,4.8,,0,0.,4.8,0.,4.8
1979-07-16 03:29:32.890 ,5,0,,0,0.,4.8,0.,4.8,,0,0.,4.8,0.,4.8
1979-07-16 03:29:37.690 ,6,0,,0,0.,4.8,0.,4.8,,0,0.,4.8,1.,4.8
1979-07-16 03:29:42.490 ,6,0,,0,0.,4.8,0.,4.8,,0,0.,4.8,1.,4.8
1979-07-16 03:29:47.290 ,6,0,,0,1.,4.8,0.,4.8,,0,0.,4.8,0.,4.8
1979-07-16 03:29:52.090 ,6,0,,0,9.,4.8,0.,4.8,,0,0.,4.8,0.,4.8
1979-07-16 03:29:56.890 ,6,0,,0,0.,4.8,0.,4.8,,0,0.,4.8,0.,4.8
1979-07-16 03:30:01.690 ,6,0,,0,3.,4.8,0.,4.8,,0,0.,4.8,0.,4.8
1979-07-16 03:30:06.490 ,6,0,,0,5.,4.8,0.,4.8,,0,0.,4.8,1.,4.8
1979-07-16 03:30:11.290 ,6,0,,0,1.,4.8,0.,4.8,,0,0.,4.8,0.,4.8
1979-07-16 03:30:16.090 ,6,0,,0,0.,4.8,0.,4.8,,0,0.,4.8,1.,4.8